(246747) = 1999 LP15 = 2009 BJ115

Discovered at Kitt Peak on 2009-01-29 by Spacewatch.

Orbit

Orbit type: Main Belt

Note: WebGL enabled browser required.

epoch2024-03-31.0
epoch JD2460400.5
perihelion date2021-04-11.72780
perihelion JD2459316.22780
argument of perihelion (°)120.66128
ascending node (°)115.73392
inclination (°)26.31055
eccentricity0.3334748
perihelion distance (AU)2.0793766
Tisserand w.r.t. Jupiter3.0
ΔV w.r.t. Earth (km/sec)12.0
semimajor axis (AU)3.1197270
mean anomaly (°)193.93995
mean daily motion (°/day)0.17886650
aphelion distance (AU)4.160
period (years)5.51
P-vector [x]-0.47318732
P-vector [y]-0.88030931
P-vector [z]0.03390102
Q-vector [x]0.78528488
Q-vector [y]-0.43892535
Q-vector [z]-0.43666027
absolute magnitude16.0
phase slope0.15
uncertainty0
referenceMPEC 2024-E109
observations used216
oppositions9
arc length (days)8506
first opposition used1999
last opposition used2022
residual rms (arc-secs)0.77
perturbers coarse indicatorM-v
perturbers precise indicator003Ek
first observation date used1999-06-12.0
last observation date used2022-09-25.0
computer nameMPCLINUX
Minimum Orbit Intersection Distances (in AU)
for orbit epoch: 2460400.5, reference: E2024-EA9
Mercury1.66449
Venus1.42229
Earth1.17187
Mars0.8108
Jupiter1.5482
Saturn5.25092
Uranus15.196
Neptune25.9979

Observations

241 total observations over interval: 1999 06 12.29068 – 2022 09 25.462181
These data are available for download (format description).

Date (UT) J2000 RA J2000 Dec Magn Location Ref
1999 06 12.29068 17 16 01.91 +08 50 43.5 18.7   704 – Lincoln Laboratory ETS, New Mexico MPS 5268
1999 06 12.30292 17 16 01.30 +08 50 32.2 19.2   704 – Lincoln Laboratory ETS, New Mexico MPS 5268
1999 06 12.31511 17 16 00.58 +08 50 21.0 18.8   704 – Lincoln Laboratory ETS, New Mexico MPS 5268
1999 06 12.33949 17 15 59.19 +08 50 00.1 19.6   704 – Lincoln Laboratory ETS, New Mexico MPS 5268
1999 06 14.29057 17 14 14.51 +08 20 21.1 18.8   704 – Lincoln Laboratory ETS, New Mexico MPS 5268
1999 06 14.30273 17 14 13.84 +08 20 09.3 19.3   704 – Lincoln Laboratory ETS, New Mexico MPS 5268
1999 06 14.31476 17 14 13.17 +08 19 58.6 18.9   704 – Lincoln Laboratory ETS, New Mexico MPS 5268
1999 06 14.32681 17 14 12.51 +08 19 46.8 19.0   704 – Lincoln Laboratory ETS, New Mexico MPS 5268
1999 06 14.33885 17 14 11.83 +08 19 36.0 19.5   704 – Lincoln Laboratory ETS, New Mexico MPS 5268
1999 07 13.16837 16 55 24.36 -01 00 26.4 18.9   704 – Lincoln Laboratory ETS, New Mexico MPS 318039
1999 07 13.18069 16 55 24.07 -01 00 43.2 19.7   704 – Lincoln Laboratory ETS, New Mexico MPS 318039
1999 07 13.19304 16 55 23.85 -01 00 59.0 19.3   704 – Lincoln Laboratory ETS, New Mexico MPS 318039
1999 07 13.20535 16 55 23.59 -01 01 14.7 19.5   704 – Lincoln Laboratory ETS, New Mexico MPS 318039
1999 07 13.21766 16 55 23.33 -01 01 29.8 19.6   704 – Lincoln Laboratory ETS, New Mexico MPS 318039
2004 03 24.32915 11 10 07.69 +39 43 32.0 20.2 V 703 – Catalina Sky Survey MPS 276675
2004 03 24.34064 11 10 07.51 +39 43 37.0 20.0 V 703 – Catalina Sky Survey MPS 276675
2004 03 24.35201 11 10 06.47 +39 43 43.6 19.3 V 703 – Catalina Sky Survey MPS 276675
2004 03 24.36345 11 10 06.06 +39 43 44.5 20.4 V 703 – Catalina Sky Survey MPS 276675
2008 12 21.42191 08 25 48.82 +17 52 07.1 20.8 V 691 – Steward Observatory, Kitt Peak-Spacewatch MPS 276675
2008 12 21.44003 08 25 48.22 +17 52 14.5 20.7 V 691 – Steward Observatory, Kitt Peak-Spacewatch MPS 276675
2008 12 21.45594 08 25 47.71 +17 52 21.2 21.2 V G96 – Mt. Lemmon Survey MPS 276675
2008 12 21.45816 08 25 47.63 +17 52 22.0 20.7 V 691 – Steward Observatory, Kitt Peak-Spacewatch MPS 276675
2008 12 21.46137 08 25 47.53 +17 52 23.4 20.8 V G96 – Mt. Lemmon Survey MPS 276675
2008 12 21.46679 08 25 47.35 +17 52 25.5 21.4 V G96 – Mt. Lemmon Survey MPS 276675
2008 12 21.47229 08 25 47.17 +17 52 27.7 20.7 V G96 – Mt. Lemmon Survey MPS 276675
2009 01 02.34748 08 18 11.13 +19 21 55.2 20.6 V 691 – Steward Observatory, Kitt Peak-Spacewatch MPS 276675
2009 01 02.36563 08 18 10.30 +19 22 04.0 20.7 V 691 – Steward Observatory, Kitt Peak-Spacewatch MPS 276675
2009 01 02.38379 08 18 09.43 +19 22 13.0 20.7 V 691 – Steward Observatory, Kitt Peak-Spacewatch MPS 276675
2009 01 08.33402 08 13 24.49 +20 11 45.3 20.9 V 691 – Steward Observatory, Kitt Peak-Spacewatch MPS 276675
2009 01 08.35214 08 13 23.54 +20 11 54.8 20.5 V 691 – Steward Observatory, Kitt Peak-Spacewatch MPS 276675
2009 01 08.37051 08 13 22.63 +20 12 04.1 20.5 V 691 – Steward Observatory, Kitt Peak-Spacewatch MPS 276675
2009 01 16.27445 08 06 22.86 +21 20 30.8 20.5 V G96 – Mt. Lemmon Survey MPS 276675
2009 01 16.28091 08 06 22.50 +21 20 34.5 20.4 V G96 – Mt. Lemmon Survey MPS 276675
2009 01 16.28730 08 06 22.14 +21 20 37.6 20.4 V G96 – Mt. Lemmon Survey MPS 276675
2009 01 16.29370 08 06 21.74 +21 20 41.2 20.4 V G96 – Mt. Lemmon Survey MPS 276675
2009 01 29.08570 07 54 19.51 +23 11 29.9   691 – Steward Observatory, Kitt Peak-Spacewatch MPS 276675
2009 01 29.10336 07 54 18.46 +23 11 37.8   691 – Steward Observatory, Kitt Peak-Spacewatch MPS 276675
2009 01 29.12100 07 54 17.55 +23 11 47.7   691 – Steward Observatory, Kitt Peak-Spacewatch MPS 276675
2009 01 31.11814 07 52 26.33 +23 28 29.4 20.4 V 691 – Steward Observatory, Kitt Peak-Spacewatch MPS 276675
2009 01 31.13650 07 52 25.30 +23 28 38.6 20.3 V 691 – Steward Observatory, Kitt Peak-Spacewatch MPS 276675
2009 01 31.15462 07 52 24.29 +23 28 47.9 20.5 V 691 – Steward Observatory, Kitt Peak-Spacewatch MPS 276675
2010 03 14.447862 17 36 53.43 +04 32 43.9   C51 – WISE MPS 335046
2010 03 14.58029 17 37 05.14 +04 33 10.0   C51 – WISE MPS 319426
2010 03 14.712598 17 37 16.81 +04 33 36.2   C51 – WISE MPS 319426
2010 03 14.844902 17 37 28.47 +04 34 02.2   C51 – WISE MPS 318039
2010 03 14.97721 17 37 40.20 +04 34 27.9   C51 – WISE MPS 318039
2010 03 15.10951 17 37 51.76 +04 34 55.1   C51 – WISE MPS 318039
2010 03 15.17573 17 37 57.58 +04 35 07.2   C51 – WISE MPS 318039
2010 03 15.24181 17 38 03.38 +04 35 20.8   C51 – WISE MPS 318039
2010 03 15.308030 17 38 09.166 +04 35 34.01   C51 – WISE MPS 903735
2010 03 15.374118 17 38 14.94 +04 35 46.7   C51 – WISE MPS 318039
2010 03 15.440333 17 38 20.73 +04 36 00.0   C51 – WISE MPS 335046
2010 03 15.506421 17 38 26.52 +04 36 12.9   C51 – WISE MPS 318039
2010 03 15.506549 17 38 26.52 +04 36 13.3   C51 – WISE MPS 318039
2010 03 15.63885 17 38 38.08 +04 36 39.4   C51 – WISE MPS 318039
2010 03 15.70494 17 38 43.82 +04 36 52.8   C51 – WISE MPS 318039
2010 03 15.837245 17 38 55.35 +04 37 19.2   C51 – WISE MPS 335046
2010 03 15.969550 17 39 06.86 +04 37 45.6   C51 – WISE MPS 371364
2010 03 15.969677 17 39 06.85 +04 37 45.6   C51 – WISE MPS 318039
2010 03 16.10198 17 39 18.38 +04 38 11.2   C51 – WISE MPS 335046
2010 03 16.234285 17 39 29.80 +04 38 38.4   C51 – WISE MPS 318039
2010 06 04.555334 18 11 22.438 +04 15 54.73 18.92 i F51 – Pan-STARRS 1, Haleakala MPS 337433
2010 06 04.567644 18 11 21.851 +04 15 47.00 18.94 i F51 – Pan-STARRS 1, Haleakala MPS 337433
2010 06 11.494749 18 05 43.229 +02 54 22.59 19.76 g F51 – Pan-STARRS 1, Haleakala MPS 337433
2010 06 11.507117 18 05 42.548 +02 54 12.85 19.63 g F51 – Pan-STARRS 1, Haleakala MPS 337433
2015 01 15.49843 11 54 34.369 +23 39 26.11 20.4 r F51 – Pan-STARRS 1, Haleakala MPS 562187
2015 01 15.51136 11 54 34.753 +23 39 35.55 20.3 r F51 – Pan-STARRS 1, Haleakala MPS 562187
2015 01 15.52424 11 54 35.114 +23 39 45.12 20.2 r F51 – Pan-STARRS 1, Haleakala MPS 562187
2015 01 17.48015 11 55 32.752 +24 04 06.33 20.5 w F51 – Pan-STARRS 1, Haleakala MPS 566598
2015 01 17.49403 11 55 33.123 +24 04 17.07 20.3 w F51 – Pan-STARRS 1, Haleakala MPS 566598
2015 01 17.50795 11 55 33.487 +24 04 27.77 20.3 w F51 – Pan-STARRS 1, Haleakala MPS 566598
2015 01 19.50459 11 56 26.66 +24 30 14.6 20.3 r G45 – Space Surveillance Telescope, Atom Site MPS 579068
2015 01 19.50883 11 56 26.75 +24 30 18.2 20.8 r G45 – Space Surveillance Telescope, Atom Site MPS 579068
2015 01 19.51982 11 56 27.00 +24 30 26.7 20.6 r G45 – Space Surveillance Telescope, Atom Site MPS 579068
2015 02 08.86664 11 59 51.18 +29 35 53.9 20.2 R D29 – Purple Mountain Observatory, XuYi Station MPS 579068
2015 02 08.89396 11 59 50.96 +29 36 21.3 20.6 R D29 – Purple Mountain Observatory, XuYi Station MPS 579068
2015 02 10.43296 11 59 39.64 +30 01 39.8 20.2 V 703 – Catalina Sky Survey MPS 579068
2015 02 10.43811 11 59 39.68 +30 01 45.6 19.1 V 703 – Catalina Sky Survey MPS 579068
2015 02 10.44328 11 59 39.53 +30 01 50.2 20.0 V 703 – Catalina Sky Survey MPS 579068
2015 02 10.44845 11 59 39.43 +30 01 55.2 19.2 V 703 – Catalina Sky Survey MPS 579068
2015 02 19.42288 11 57 14.37 +32 30 15.2 19.9 V 703 – Catalina Sky Survey MPS 582734
2015 02 19.42783 11 57 14.32 +32 30 20.4 19.9 V 703 – Catalina Sky Survey MPS 582734
2015 02 19.43274 11 57 14.17 +32 30 24.9 19.6 V 703 – Catalina Sky Survey MPS 582734
2015 02 25.00648 11 54 40.32 +34 00 12.7 19.6 w C41 – MASTER-II Observatory, Kislovodsk MPS 585311
2015 02 25.01375 11 54 40.13 +34 00 20.4 19.6 w C41 – MASTER-II Observatory, Kislovodsk MPS 585311
2015 03 14.33956 11 42 48.79 +37 58 04.0 19.6 V 703 – Catalina Sky Survey MPS 591540
2015 03 14.34510 11 42 48.52 +37 58 07.1 19.5 V 703 – Catalina Sky Survey MPS 591540
2015 03 14.35065 11 42 48.34 +37 58 11.1 19.4 V 703 – Catalina Sky Survey MPS 591540
2015 03 14.35618 11 42 47.96 +37 58 14.0 20.4 V 703 – Catalina Sky Survey MPS 591540
2015 03 23.22574 11 35 41.55 +39 21 02.0 19.1 R H15 – ISON-NM Observatory, Mayhill MPS 594717
2015 03 23.23662 11 35 41.04 +39 21 07.2 19.3 R H15 – ISON-NM Observatory, Mayhill MPS 594717
2015 03 23.24788 11 35 40.42 +39 21 11.8 19.3 R H15 – ISON-NM Observatory, Mayhill MPS 594717
2015 03 24.20407 11 34 55.39 +39 28 11.9 19.7 V 703 – Catalina Sky Survey MPS 594717
2015 03 24.20914 11 34 55.07 +39 28 14.5 19.6 V 703 – Catalina Sky Survey MPS 594717
2015 03 24.21420 11 34 54.72 +39 28 15.2 19.9 V 703 – Catalina Sky Survey MPS 594717
